Tracking 28790 objects as of 18-Apr-2024
HD Live streaming from Space Station
objects crossing your sky now

SL-8 DEB

Track SL-8 DEB now!
10-day predictions


NORAD ID: 5052
Int'l Code: 1971-020C
Perigee: 985.5 km
Apogee: 1,002.8 km
Inclination: 65.8 °
Period: 104.8 minutes
Semi major axis: 7365 km
RCS: 0.4335 m2 (medium)
Launch date: March 18, 1971
Source: Commonwealth of Independent States (former USSR) (CIS)
Launch site: PLESETSK MISSILE AND SPACE COMPLEX (PKMTR)

Note: This is SATELLITE DEBRIS
Your satellite tracking list
Your tracking list is empty




NASA's NSSDC Master Catalog

Two Line Element Set (TLE):
1 05052U 71020C   24108.87243340  .00000061  00000-0  15143-3 0  9992
2 05052  65.8197 280.1363 0011723 243.9028 229.4753 13.73505334660665
Source of the keplerian elements: AFSPC